Regional Weather Roundup
Issued by NWS

Home | Current Version | Previous Version | Text Only | Print | Product List | Glossary Off
Versions: 1 2 3 4 5 6 7 8 9 10 11 12 13 14 15 16 17 18 19 20 21 22 23 24 25 26 27 28 29 30 31 32 33 34 35 36 37 38 39 40 41 42 43 44 45 46 47 48 49 50

000
ASUS44 KMEG 281100
RWRTN
TENNESSEE HOURLY STATE WEATHER ROUNDUP
NATIONAL WEATHER SERVICE MEMPHIS TN
600 AM CDT THU APR 28 2016

TNZ002-004-019-021-049-052-054-088>092-281200-
WEST TENNESSEE

CITY           SKY/WX    TMP DP  RH WIND       PRES   REMARKS
MEMPHIS INTL   PTCLDY    67  63  87 W5        29.84R
NWS MEMPHIS      N/A     64 N/A N/A MISG        N/A
JACKSON        CLEAR     63  62  97 SW6       29.83R
DYERSBURG      PTCLDY    64  61  88 W8        29.83R
UNION CITY     CLEAR     63  63 100 W6        29.80R
LEXINGTON      MOCLDY    64  64 100 CALM      29.82R
$$

TNZ008-025-027-028-033-062-065-066-281200-
NORTH MIDDLE TENNESSEE

CITY           SKY/WX    TMP DP  RH WIND       PRES   REMARKS
NASHVILLE      CLOUDY    66  63  90 S3        29.84R
CLARKSVILLE    CLOUDY    64  63  96 CALM      29.81R FOG
COOKEVILLE     CLOUDY    66  64  94 SW6       29.86R
CROSSVILLE     CLOUDY    65  60  84 VRB5      29.90R
$$

TNZ061-075-076-078-094-096-097-281200-
SOUTH MIDDLE TENNESSEE

CITY           SKY/WX    TMP DP  RH WIND       PRES   REMARKS
TULLAHOMA      MOCLDY    64  64 100 SW5       29.89R
WINCHESTER     CLOUDY    66  63  88 VRB6      29.88R
MCMINNVILLE    CLOUDY    66  66 100 CALM      29.88R
COLUMBIA       CLOUDY   N/A N/A N/A S5        29.83R
SHELBYVILLE    CLOUDY    68  66  94 S5        29.87R
$$

TNZ017-018-042-046-047-281200-
NORTHEAST TENNESSEE

CITY           SKY/WX    TMP DP  RH WIND       PRES   REMARKS
TRI CITIES     CLOUDY    61  60  97 CALM      29.91R
$$

TNZ012-013-036-069-073-074-281200-
CENTRAL EAST TENNESSEE

CITY           SKY/WX    TMP DP  RH WIND       PRES   REMARKS
KNOXVILLE      MOCLDY    64  62  93 NE3       29.88R FOG
OAK RIDGE      CLOUDY    65  63  93 CALM      29.90R
GATLINBURG     CLOUDY    61  61 100 CALM      29.90R
$$

TNZ083-085-099-281200-
SOUTHEAST TENNESSEE

CITY           SKY/WX    TMP DP  RH WIND       PRES   REMARKS
CHATTANOOGA    MOCLDY    65  62  90 CALM      29.89R
$$

SKY/WX REPORTED AS FAIR MEANS FEW OR NO CLOUDS BELOW
12 THOUSAND FEET.





USA.gov is the U.S. government's official web portal to all federal, state and local government web resources and services.